Flag for Italy Weather past 2 weeks in Naples, Italy

Now
72 °F

Passing clouds.


Feels Like: 77 °F
Forecast: 66 / 89 °F
Wind: 3 mph from Northeast

Location: Naples / Capodichino

Current Time: Jun 30, 2015 at 7:25:46 AM

Latest Report: Jun 30, 2015 at 6:50 AM


Visibility: N/A

Pressure: 30.09 "Hg

Humidity: 50%

Dew point: 52 °F

Location of NaplesLocation

Historic Weather in Naples — Graph

°F

Naples temperature yesterday

Maximum temperature yesterday: 88 °F (at 2:20 PM)
Minimum temperature yesterday: 66 °F (at 2:50 AM)
Average temperature yesterday: 78 °F

Past Weeks' High & Low Weather Summary

 TemperatureHumidityPressure
High88 °F (Jun 29, 2:20 PM)100% (Jun 17, 10:20 AM)30.09 "Hg (Jun 17, 10:20 AM)
Low61 °F (Jun 17, 10:20 AM)23% (Jun 27, 1:50 PM)29.80 "Hg (Jun 20, 4:50 PM)
Average74 °F54%29.98 "Hg
* Reported Jun 15 6:20 AM — Jun 30 6:20 AM, Naples, Weather by CustomWeather, © 2015

Note: Actual official high and low records may vary slightly from our data, if they occured in-between our weather recording intervals... More about our weather records

Advertising

Naples weather history for previous 24 hours

 ConditionsComfort  
Time TempWeatherWind HumidityBarometerVisibility
6:20 AM
Tue, Jun 30
68 °FPassing clouds.1 mph69%30.09 "HgN/A
5:50 AM70 °FPassing clouds.1 mph60%30.09 "HgN/A
5:20 AM70 °FPassing clouds.2 mph60%30.07 "HgN/A
4:50 AM72 °FClear.2 mph57%30.07 "Hg10 mi
4:20 AM70 °FClear.2 mph60%30.07 "Hg10 mi
3:50 AM70 °FClear.2 mph64%30.07 "Hg10 mi
3:20 AM70 °FClear.2 mph69%30.09 "Hg10 mi
2:50 AM72 °FClear.1 mph65%30.09 "Hg10 mi
2:20 AM70 °FClear.5 mph69%30.09 "Hg10 mi
1:50 AM72 °FClear.3 mph65%30.09 "Hg10 mi
1:20 AM72 °FClear.No wind61%30.09 "Hg10 mi
12:50 AM73 °FClear.No wind61%30.09 "Hg10 mi
12:20 AM73 °FClear.No wind61%30.09 "Hg10 mi
11:50 PM
Mon, Jun 29
73 °FClear.2 mph65%30.09 "Hg10 mi
11:20 PM73 °FClear.No wind61%30.09 "Hg10 mi
10:50 PM75 °FPassing clouds.1 mph57%30.09 "HgN/A
10:20 PM77 °FPassing clouds.3 mph54%30.09 "HgN/A
9:50 PM77 °FPassing clouds.3 mph57%30.09 "HgN/A
9:20 PM75 °FScattered clouds.1 mph57%30.09 "HgN/A
8:50 PM77 °FScattered clouds.5 mph54%30.09 "HgN/A
8:20 PM77 °FScattered clouds.5 mph54%30.09 "HgN/A
7:50 PM79 °FPartly sunny.9 mph48%30.07 "HgN/A
7:20 PM81 °FPartly sunny.12 mph42%30.07 "HgN/A
6:50 PM81 °FPartly sunny.12 mph45%30.07 "HgN/A
6:20 PM81 °FPartly sunny.13 mph42%30.07 "HgN/A
5:50 PM82 °FPartly sunny.14 mph37%30.07 "HgN/A
5:20 PM82 °FPartly sunny.14 mph37%30.07 "HgN/A
4:50 PM84 °FPartly sunny.14 mph35%30.07 "HgN/A
4:20 PM84 °FScattered clouds.15 mph33%30.07 "HgN/A
3:50 PM86 °FScattered clouds.10 mph33%30.07 "HgN/A
3:20 PM86 °FScattered clouds.8 mph29%30.07 "HgN/A
2:50 PM88 °FScattered clouds.6 mph27%30.07 "HgN/A
2:20 PM88 °FScattered clouds.3 mph24%30.07 "HgN/A
1:50 PM86 °FPassing clouds.5 mph25%30.07 "HgN/A
1:20 PM86 °FPassing clouds.7 mph25%30.09 "HgN/A
12:50 PM86 °FSunny.3 mph25%30.09 "Hg10 mi
12:20 PM84 °FPassing clouds.8 mph29%30.09 "HgN/A
11:50 AM84 °FPassing clouds.10 mph29%30.09 "HgN/A
11:20 AM82 °FPassing clouds.9 mph30%30.09 "HgN/A
10:50 AM81 °FPassing clouds.10 mph32%30.09 "HgN/A
10:20 AM82 °FPassing clouds.7 mph35%30.09 "HgN/A
9:50 AM81 °FPassing clouds.5 mph34%30.09 "HgN/A
9:20 AM79 °FPassing clouds.6 mph39%30.09 "HgN/A
8:50 AM79 °FSunny.7 mph37%30.09 "Hg10 mi
8:20 AM77 °FSunny.7 mph39%30.09 "Hg10 mi
7:50 AM73 °FPassing clouds.6 mph47%30.07 "HgN/A
7:20 AM73 °FScattered clouds.8 mph44%30.07 "HgN/A
Weather by CustomWeather, © 2015

See weather overviewHow to use our weather pages